Regional Weather Roundup
Issued by NWS

Home | Current Version | Previous Version | Text Only | Print | Product List | Glossary Off
Versions: 1 2 3 4 5 6 7 8 9 10 11 12 13 14 15 16 17 18 19 20 21 22 23 24 25 26 27 28 29 30 31 32 33 34 35 36 37 38 39 40 41 42 43 44 45 46 47 48 49 50

000
ASUS43 KBIS 240610
RWRND

NORTH DAKOTA REGIONAL WEATHER ROUNDUP
NATIONAL WEATHER SERVICE BISMARCK ND
100 AM CDT TUE MAY 24 2016

NOTE: "FAIR" INDICATES FEW OR NO CLOUDS BELOW 12,000 FEET WITH NO
SIGNIFICANT WEATHER AND/OR OBSTRUCTIONS TO VISIBILITY.


NDZ001>003-009>011-017-240700-
NORTHWEST NORTH DAKOTA

CITY           SKY/WX    TMP DP  RH WIND       PRES   REMARKS
WILLISTON      CLEAR     49  39  68 SW7       29.77R
6HR MIN TEMP:  49; 6HR MAX TEMP:  70;

MINOT          CLEAR     54  44  69 SW7       29.75R
MINOT AFB      CLEAR     48  39  71 W7        29.74R
$$

NDZ018>021-031>035-040>046-240700-
SOUTHWEST NORTH DAKOTA

CITY           SKY/WX    TMP DP  RH WIND       PRES   REMARKS
BISMARCK       CLOUDY    59  47  64 SE12      29.74F
6HR MIN TEMP:  59; 6HR MAX TEMP:  76; 6HR PCP:  0.01;

DICKINSON      CLEAR     41  34  76 S3        29.78S
GARRISON         N/A     51  43  74 W6        29.77R
6HR MIN TEMP:  48; 6HR MAX TEMP:  74;

HETTINGER ARPT CLEAR     40  36  86 W6        29.82R
$$

NDZ004>008-012>016-024-026-027-054-240700-
NORTHEAST NORTH DAKOTA

CITY           SKY/WX    TMP DP  RH WIND       PRES   REMARKS
GRAND FORKS    CLOUDY    62  51  67 E7        29.71S
GRND FRKS AFB  MOCLDY    63  48  57 E6        29.72S
DEVILS LAKE    CLOUDY    62  48  60 W13       29.75R
$$

NDZ022-023-025-028>030-036>039-047>053-240700-
SOUTHEAST NORTH DAKOTA

CITY           SKY/WX    TMP DP  RH WIND       PRES   REMARKS
FARGO          CLOUDY    60  49  66 W9        29.71R
6HR MIN TEMP:  60; 6HR MAX TEMP:  77; 6HR PCP: TRACE;

JAMESTOWN      TSTM      57  50  77 NW21G32   29.75R
$$




USA.gov is the U.S. government's official web portal to all federal, state and local government web resources and services.